Skip Page Navigation
NASA JPL Caltech
NASA Logo - Jet Propulsion Laboratory + View the NASA Portal
+ Near-Earth Object (NEO) Program
Search JPL
JPL Home Earth Solar System Stars & Galaxies Technology
JPL Solar System Dynamics
BODIES ORBITS EPHEMERIDES TOOLS PHYSICAL DATA DISCOVERY FAQ SITE MAP
JPL Small-Body Database Browser
Search: [ help ]  
20883 Gervais (2000 VD58)
Classification: Main-belt Asteroid          SPK-ID: 2020883
Ephemeris | Orbit Diagram | Orbital Elements | Physical Parameters | Discovery Circumstances | Close-Approach Data ]

[ hide orbit diagram ]
Orbit Diagram
Note: Make sure you have Java enabled on your browser to see the applet. This applet is provided as a 3D orbit visualization tool. The applet was implemented using 2-body methods, and hence should not be used for determining accurate long-term trajectories (over several years or decades) or planetary encounter circumstances. For accurate long-term ephemerides, please instead use our Horizons system.
Orbit Viewer

Additional Notes: the orbits shown in the applet are color coded. The planets are white lines, and the asteroid/comet is a blue line. The bright white line indicates the portion of the orbit that is above the ecliptic plane, and the darker portion is below the ecliptic plane. Likewise for the asteroid/comet orbit, the light blue indicates the portion above the ecliptic plane, and the dark blue the portion below the ecliptic plane.

Orbit Viewer applet originally written and kindly provided by Osamu Ajiki (AstroArts), and further modified by Ron Baalke (JPL).


Orbital Elements at Epoch 2456400.5 (2013-Apr-18.0) TDB
Reference: JPL 1 (heliocentric ecliptic J2000)
 Element Value Uncertainty (1-sigma)   Units 
e .1326609811793887 6.751e-08  
a 2.252834164433749 1.843e-08 AU
q 1.95397097374552 1.558e-07 AU
i 5.937947083836512 8.6575e-06 deg
node 302.2279978622964 7.6262e-05 deg
peri 336.0230158877381 8.9469e-05 deg
M 7.601638098360434 5.2508e-05 deg
tp 2456374.420638687794
(2013-Mar-22.92063869)
0.00017999 JED
period 1235.071960926302
3.38
1.5156e-05
4.149e-08
d
yr
n .2914809917067509 3.5768e-09 deg/d
Q 2.551697355121979 2.0875e-08 AU
  Orbit Determination Parameters
   # obs. used (total)      613  
   data-arc span      12310 days (33.70 yr)  
   first obs. used      1979-07-24  
   last obs. used      2013-04-06  
   planetary ephem.      DE405  
   SB-pert. ephem.      SB405-CPV-2  
   condition code      0  
   fit RMS      .53584  
   data source      ORB  
   producer      Otto Matic  
   solution date      2013-Apr-29 14:27:59  

Additional Information
 Earth MOID = .939363 AU 
 T_jup = 3.607 
[ show covariance matrix ]

Ephemeris | Orbit Diagram | Orbital Elements | Physical Parameters | Discovery Circumstances | Close-Approach Data ]

Physical Parameter Table
Parameter Symbol Value Units Sigma Reference Notes
absolute magnitude H 15.1 mag n/a PDS3 (MPO 7971)  

20883 Gervais           Discovered 2000 Nov. 3 by the Lincoln Laboratory Near-Earth Asteroid Research Team at Socorro.
Raphael Gervais (b. 1987) was awarded first place in the 2004 Intel International Science and Engineering Fair for his physics team project. He also received the MILSET Expo-Science Europe award. He attends the College Regina Assumpta, Montreal, Quebec, Canada.
NOTE: some special characters may not display properly (any characters within {} are an attempt to place the proper accent above a character)
Reference: 20041226/MPCPages.arcLast Updated: 2004-12-25

[ show close-approach data ]
Alternate Designations
 2000 VD58 = 1979 OY3 = 1999 LH16 
Ephemeris | Orbit Diagram | Orbital Elements | Physical Parameters | Discovery Circumstances | Close-Approach Data ]
ABOUT SSD CREDITS/AWARDS PRIVACY/COPYRIGHT GLOSSARY LINKS
FirstGov 2013-Jun-19 00:07 UT
(server date/time)  
NASA Home Page
Site Manager:   Donald K. Yeomans
Webmaster  Alan B. Chamberlin